| time (UTC) | temp F | wind direction | speed MPH | gust MPH | rain 1hr in | rain 24hr in | rain mn in | humidity % | barometer mb |
| 20260507115027 | 62 | 338 | 1.0 | 4.0 | 0.00 | 0.01 | 0.00 | 59 | 1016.0 |
| 20260507114018 | 61 | 23 | 1.0 | 2.0 | 0.00 | 0.01 | 0.00 | 58 | 1016.0 |
| 20260507113018 | 60 | 315 | 2.0 | 5.0 | 0.00 | 0.02 | 0.00 | 60 | 1016.1 |
| 20260507112017 | 60 | 338 | 1.0 | 5.0 | 0.00 | 0.02 | 0.00 | 61 | 1016.2 |
| 20260507111018 | 59 | 0.0 | 2.0 | 0.00 | 0.02 | 0.00 | 63 | 1016.3 | |
| 20260507110017 | 60 | 90 | 1.0 | 3.0 | 0.00 | 0.02 | 0.00 | 62 | 1016.4 |
| 20260507105027 | 61 | 338 | 1.0 | 4.0 | 0.00 | 0.03 | 0.00 | 63 | 1016.4 |
| 20260507104027 | 61 | 113 | 1.0 | 5.0 | 0.00 | 0.03 | 0.00 | 67 | 1016.5 |
| 20260507103017 | 60 | 90 | 1.0 | 3.0 | 0.00 | 0.03 | 0.00 | 64 | 1016.4 |
| 20260507102018 | 59 | 293 | 1.0 | 3.0 | 0.00 | 0.04 | 0.00 | 67 | 1016.4 |
| 20260507101028 | 58 | 0 | 1.0 | 3.0 | 0.00 | 0.04 | 0.00 | 70 | 1016.5 |
| 20260507100018 | 57 | 0.0 | 2.0 | 0.00 | 0.05 | 0.00 | 71 | 1016.5 | |
| 20260507095017 | 57 | 315 | 1.0 | 3.0 | 0.00 | 0.05 | 0.00 | 72 | 1016.5 |
| 20260507094027 | 58 | 0.0 | 2.0 | 0.00 | 0.05 | 0.00 | 69 | 1016.5 | |
| 20260507093019 | 58 | 0.0 | 1.0 | 0.00 | 0.06 | 0.00 | 69 | 1016.5 | |
| 20260507092017 | 58 | 0.0 | 3.0 | 0.00 | 0.06 | 0.00 | 67 | 1016.4 | |
| 20260507091017 | 59 | 0.0 | 2.0 | 0.00 | 0.06 | 0.00 | 66 | 1016.5 | |
| 20260507090017 | 59 | 0.0 | 2.0 | 0.00 | 0.07 | 0.00 | 74 | 1016.4 | |
| 20260507085017 | 58 | 180 | 1.0 | 3.0 | 0.00 | 0.07 | 0.00 | 75 | 1016.3 |
| 20260507084017 | 58 | 338 | 1.0 | 3.0 | 0.00 | 0.08 | 0.00 | 75 | 1016.3 |
| 20260507083017 | 59 | 338 | 1.0 | 2.0 | 0.00 | 0.08 | 0.00 | 78 | 1016.3 |
| 20260507082017 | 57 | 68 | 1.0 | 2.0 | 0.00 | 0.09 | 0.00 | 82 | 1016.3 |
| 20260507081018 | 55 | 338 | 1.0 | 3.0 | 0.00 | 0.09 | 0.00 | 87 | 1016.3 |
| 20260507080027 | 52 | 0.0 | 0.0 | 0.00 | 0.10 | 0.00 | 88 | 1016.3 | |
| 20260507075017 | 52 | 0.0 | 2.0 | 0.00 | 0.10 | 0.00 | 88 | 1016.3 | |
| 20260507074018 | 51 | 0.0 | 1.0 | 0.00 | 0.11 | 0.00 | 88 | 1016.3 | |
| 20260507073018 | 51 | 0.0 | 0.0 | 0.00 | 0.11 | 0.00 | 89 | 1016.2 | |
| 20260507072017 | 50 | 0.0 | 1.0 | 0.00 | 0.12 | 0.00 | 89 | 1016.2 | |
| 20260507071017 | 50 | 0.0 | 1.0 | 0.00 | 0.12 | 0.00 | 89 | 1016.1 | |
| 20260507070017 | 49 | 0.0 | 1.0 | 0.00 | 0.13 | 0.00 | 89 | 1016.0 | |
| 20260507065017 | 49 | 0.0 | 1.0 | 0.00 | 0.13 | 0.00 | 89 | 1016.0 | |
| 20260507064028 | 48 | 0.0 | 0.0 | 0.00 | 0.14 | 0.00 | 89 | 1015.9 | |
| 20260507063017 | 48 | 0.0 | 1.0 | 0.00 | 0.15 | 0.00 | 89 | 1015.9 | |
| 20260507062017 | 48 | 0.0 | 1.0 | 0.00 | 0.15 | 0.00 | 90 | 1015.8 | |
| 20260507061019 | 47 | 0.0 | 0.0 | 0.00 | 0.16 | 0.00 | 89 | 1015.8 | |
| 20260507060017 | 47 | 0.0 | 0.0 | 0.00 | 0.16 | 0.00 | 90 | 1015.8 | |
| 20260507055018 | 47 | 0.0 | 0.0 | 0.00 | 0.17 | 0.00 | 90 | 1015.7 | |
| 20260507054027 | 47 | 0.0 | 0.0 | 0.00 | 0.18 | 0.00 | 90 | 1015.7 | |
| 20260507053028 | 47 | 0.0 | 0.0 | 0.00 | 0.18 | 0.00 | 90 | 1015.6 | |
| 20260507052017 | 46 | 0.0 | 0.0 | 0.00 | 0.19 | 0.00 | 90 | 1015.5 | |
| 20260507051019 | 46 | 0.0 | 0.0 | 0.00 | 0.20 | 0.00 | 90 | 1015.4 | |
| 20260507050017 | 46 | 0.0 | 1.0 | 0.00 | 0.21 | 0.00 | 90 | 1015.3 | |
| 20260507045027 | 46 | 0.0 | 0.0 | 0.00 | 0.21 | 0.00 | 89 | 1015.2 | |
| 20260507044017 | 46 | 0.0 | 0.0 | 0.00 | 0.22 | 0.00 | 89 | 1015.2 | |
| 20260507043020 | 46 | 0.0 | 0.0 | 0.00 | 0.23 | 0.00 | 90 | 1015.1 | |
| 20260507042017 | 46 | 0.0 | 0.0 | 0.00 | 0.24 | 0.00 | 90 | 1015.0 | |
| 20260507041017 | 46 | 0.0 | 0.0 | 0.00 | 0.24 | 0.00 | 90 | 1015.0 | |
| 20260507040017 | 46 | 0.0 | 0.0 | 0.00 | 0.25 | 0.00 | 90 | 1014.9 | |
| 20260507035017 | 46 | 0.0 | 0.0 | 0.00 | 0.26 | 0.00 | 90 | 1014.9 | |
| 20260507034017 | 46 | 0.0 | 0.0 | 0.00 | 0.27 | 0.00 | 90 | 1014.9 | |
| 20260507033017 | 46 | 0.0 | 0.0 | 0.00 | 0.27 | 0.00 | 90 | 1014.8 | |
| 20260507032017 | 46 | 0.0 | 0.0 | 0.00 | 0.28 | 0.00 | 90 | 1014.8 | |
| 20260507031017 | 46 | 0.0 | 0.0 | 0.00 | 0.29 | 0.00 | 90 | 1014.8 | |
| 20260507030018 | 46 | 0.0 | 0.0 | 0.00 | 0.30 | 0.00 | 90 | 1014.9 | |
| 20260507025016 | 46 | 0.0 | 0.0 | 0.00 | 0.31 | 0.00 | 90 | 1014.9 | |
| 20260507024027 | 46 | 0.0 | 0.0 | 0.00 | 0.31 | 0.00 | 89 | 1015.0 | |
| 20260507023016 | 46 | 0.0 | 0.0 | 0.00 | 0.31 | 0.00 | 89 | 1014.9 | |
| 20260507022017 | 46 | 0.0 | 0.0 | 0.00 | 0.32 | 0.00 | 89 | 1014.9 | |
| 20260507021027 | 46 | 0.0 | 0.0 | 0.00 | 0.33 | 0.00 | 89 | 1014.8 | |
| 20260507020016 | 46 | 0.0 | 0.0 | 0.00 | 0.34 | 0.00 | 90 | 1014.8 | |
| 20260507015016 | 46 | 0.0 | 0.0 | 0.00 | 0.34 | 0.00 | 90 | 1014.7 | |
| 20260507014017 | 45 | 0.0 | 0.0 | 0.00 | 0.35 | 0.00 | 90 | 1014.7 | |
| 20260507013016 | 45 | 0.0 | 1.0 | 0.00 | 0.36 | 0.00 | 90 | 1014.7 | |
| 20260507012016 | 45 | 0.0 | 0.0 | 0.00 | 0.37 | 0.00 | 89 | 1014.7 | |
| 20260507010128 | 45 | 0.0 | 0.0 | 0.00 | 0.38 | 0.00 | 89 | 1014.6 | |
| 20260507005016 | 45 | 0.0 | 0.0 | 0.00 | 0.39 | 0.00 | 89 | 1014.5 | |
| 20260507004017 | 45 | 0.0 | 1.0 | 0.00 | 0.40 | 0.00 | 89 | 1014.5 | |
| 20260507003026 | 45 | 0.0 | 1.0 | 0.00 | 0.41 | 0.00 | 89 | 1014.4 | |
| 20260507002016 | 45 | 0.0 | 1.0 | 0.00 | 0.41 | 0.00 | 89 | 1014.5 | |
| 20260507001016 | 45 | 0.0 | 2.0 | 0.00 | 0.42 | 0.00 | 89 | 1014.5 | |
| 20260507000016 | 44 | 0.0 | 1.0 | 0.00 | 0.43 | 0.00 | 89 | 1014.5 | |
| 20260506235016 | 44 | 0.0 | 0.0 | 0.00 | 0.44 | 0.00 | 89 | 1014.5 | |
| 20260506234016 | 44 | 0.0 | 0.0 | 0.00 | 0.45 | 0.00 | 89 | 1014.5 | |
| 20260506233016 | 44 | 0.0 | 1.0 | 0.00 | 0.45 | 0.00 | 89 | 1014.5 | |
| 20260506232016 | 44 | 0.0 | 0.0 | 0.00 | 0.46 | 0.00 | 89 | 1014.4 | |
| 20260506231018 | 44 | 0.0 | 0.0 | 0.00 | 0.47 | 0.00 | 89 | 1014.4 | |
| 20260506230028 | 44 | 0.0 | 0.0 | 0.00 | 0.48 | 0.00 | 89 | 1014.4 | |
| 20260506225019 | 44 | 0.0 | 0.0 | 0.00 | 0.48 | 0.00 | 89 | 1014.4 | |
| 20260506224018 | 44 | 0.0 | 0.0 | 0.00 | 0.49 | 0.00 | 89 | 1014.4 | |
| 20260506223018 | 44 | 0.0 | 0.0 | 0.00 | 0.50 | 0.00 | 89 | 1014.2 | |
| 20260506222029 | 45 | 0.0 | 0.0 | 0.00 | 0.50 | 0.00 | 89 | 1014.2 | |
| 20260506221018 | 45 | 0.0 | 1.0 | 0.00 | 0.51 | 0.00 | 88 | 1014.1 | |
| 20260506220018 | 45 | 0.0 | 0.0 | 0.00 | 0.52 | 0.42 | 88 | 1014.1 | |
| 20260506215017 | 45 | 0.0 | 0.0 | 0.00 | 0.52 | 0.42 | 88 | 1014.0 | |
| 20260506214017 | 46 | 0.0 | 0.0 | 0.00 | 0.53 | 0.42 | 88 | 1014.0 | |
| 20260506213027 | 46 | 0.0 | 0.0 | 0.00 | 0.54 | 0.42 | 88 | 1013.9 | |
| 20260506212017 | 46 | 0.0 | 0.0 | 0.00 | 0.54 | 0.42 | 88 | 1014.0 | |
| 20260506211017 | 47 | 0.0 | 0.0 | 0.00 | 0.55 | 0.42 | 87 | 1013.9 | |
| 20260506210017 | 47 | 0.0 | 0.0 | 0.00 | 0.56 | 0.42 | 87 | 1013.9 | |
| 20260506205017 | 48 | 0.0 | 0.0 | 0.00 | 0.56 | 0.42 | 87 | 1013.8 | |
| 20260506204017 | 48 | 0.0 | 0.0 | 0.00 | 0.57 | 0.42 | 86 | 1013.8 | |
| 20260506203018 | 49 | 0.0 | 0.0 | 0.00 | 0.58 | 0.42 | 86 | 1013.7 | |
| 20260506202017 | 49 | 0.0 | 0.0 | 0.00 | 0.58 | 0.42 | 85 | 1013.6 | |
| 20260506201017 | 49 | 0.0 | 0.0 | 0.00 | 0.59 | 0.42 | 85 | 1013.5 | |
| 20260506200017 | 50 | 0.0 | 0.0 | 0.00 | 0.59 | 0.42 | 84 | 1013.4 | |
| 20260506195017 | 50 | 0.0 | 1.0 | 0.00 | 0.60 | 0.42 | 83 | 1013.3 | |
| 20260506194017 | 51 | 0.0 | 0.0 | 0.00 | 0.60 | 0.42 | 82 | 1013.1 | |
| 20260506193027 | 52 | 0.0 | 1.0 | 0.00 | 0.61 | 0.42 | 82 | 1012.9 | |
| 20260506192017 | 52 | 0.0 | 1.0 | 0.00 | 0.62 | 0.42 | 81 | 1012.8 | |
| 20260506191017 | 53 | 0.0 | 1.0 | 0.00 | 0.62 | 0.42 | 81 | 1012.6 | |
| 20260506190121 | 53 | 0.0 | 1.0 | 0.00 | 0.63 | 0.52 | 79 | 1012.6 | |
| 20260506185017 | 53 | 0.0 | 2.0 | 0.00 | 0.63 | 0.42 | 78 | 1012.5 | |
| 20260506184017 | 54 | 270 | 1.0 | 4.0 | 0.00 | 0.64 | 0.42 | 77 | 1012.4 |
| 20260506183027 | 54 | 23 | 1.0 | 3.0 | 0.00 | 0.64 | 0.42 | 76 | 1012.4 |
| 20260506182019 | 55 | 90 | 1.0 | 3.0 | 0.00 | 0.65 | 0.42 | 74 | 1012.2 |
| 20260506181023 | 55 | 338 | 1.0 | 4.0 | 0.00 | 0.65 | 0.42 | 75 | 1012.0 |
| 20260506180017 | 55 | 90 | 1.0 | 3.0 | 0.00 | 0.66 | 0.42 | 76 | 1011.9 |
| 20260506175018 | 55 | 0.0 | 2.0 | 0.00 | 0.67 | 0.42 | 75 | 1011.8 | |
| 20260506174016 | 55 | 0.0 | 2.0 | 0.00 | 0.67 | 0.42 | 77 | 1011.7 | |
| 20260506173017 | 55 | 293 | 1.0 | 5.0 | 0.00 | 0.68 | 0.42 | 76 | 1011.6 |
| 20260506172017 | 55 | 0.0 | 3.0 | 0.00 | 0.69 | 0.42 | 76 | 1011.6 | |
| 20260506171038 | 54 | 0.0 | 1.0 | 0.00 | 0.69 | 0.42 | 75 | 1011.5 | |
| 20260506170018 | 54 | 45 | 1.0 | 3.0 | 0.00 | 0.70 | 0.42 | 73 | 1011.5 |
| 20260506165019 | 55 | 0.0 | 3.0 | 0.00 | 0.71 | 0.42 | 75 | 1011.5 | |
| 20260506164028 | 55 | 0 | 1.0 | 4.0 | 0.00 | 0.72 | 0.42 | 72 | 1011.5 |
| 20260506163017 | 56 | 45 | 1.0 | 4.0 | 0.00 | 0.73 | 0.42 | 72 | 1011.4 |
| 20260506162018 | 56 | 0.0 | 1.0 | 0.00 | 0.74 | 0.42 | 74 | 1011.4 | |
| 20260506161019 | 56 | 90 | 1.0 | 2.0 | 0.00 | 0.74 | 0.42 | 71 | 1011.4 |
| 20260506160028 | 55 | 90 | 1.0 | 4.0 | 0.00 | 0.75 | 0.42 | 72 | 1011.4 |
| 20260506155019 | 55 | 68 | 1.0 | 6.0 | 0.00 | 0.76 | 0.42 | 76 | 1011.4 |
| 20260506154018 | 54 | 0 | 1.0 | 3.0 | 0.00 | 0.77 | 0.42 | 76 | 1011.4 |
| 20260506153017 | 54 | 68 | 1.0 | 3.0 | 0.00 | 0.78 | 0.42 | 76 | 1011.4 |
| 20260506152017 | 55 | 338 | 1.0 | 3.0 | 0.00 | 0.80 | 0.42 | 75 | 1011.3 |
| 20260506151018 | 55 | 293 | 1.0 | 4.0 | 0.00 | 0.81 | 0.42 | 75 | 1011.4 |
| 20260506150019 | 55 | 293 | 1.0 | 4.0 | 0.00 | 0.82 | 0.42 | 75 | 1011.4 |
| 20260506145018 | 56 | 338 | 1.0 | 3.0 | 0.00 | 0.83 | 0.42 | 73 | 1011.4 |
| 20260506144017 | 56 | 293 | 1.0 | 6.0 | 0.00 | 0.84 | 0.42 | 70 | 1011.4 |
| 20260506143017 | 56 | 338 | 1.0 | 3.0 | 0.00 | 0.84 | 0.42 | 69 | 1011.3 |
| 20260506142017 | 57 | 338 | 1.0 | 3.0 | 0.00 | 0.85 | 0.42 | 68 | 1011.2 |
| 20260506141017 | 58 | 315 | 1.0 | 3.0 | 0.00 | 0.86 | 0.42 | 70 | 1011.3 |
| 20260506140018 | 58 | 45 | 1.0 | 3.0 | 0.00 | 0.86 | 0.42 | 67 | 1011.2 |
| 20260506135017 | 59 | 0 | 1.0 | 4.0 | 0.00 | 0.87 | 0.42 | 64 | 1011.2 |
| 20260506134017 | 60 | 45 | 2.0 | 5.0 | 0.00 | 0.87 | 0.42 | 66 | 1011.2 |
| 20260506133017 | 59 | 158 | 1.0 | 6.0 | 0.00 | 0.88 | 0.42 | 68 | 1011.3 |
| 20260506132017 | 59 | 90 | 2.0 | 6.0 | 0.01 | 0.88 | 0.42 | 65 | 1011.3 |
| 20260506131037 | 59 | 315 | 2.0 | 4.0 | 0.01 | 0.89 | 0.42 | 69 | 1011.2 |
| 20260506130027 | 59 | 23 | 2.0 | 7.0 | 0.01 | 0.89 | 0.42 | 68 | 1011.3 |
| 20260506125017 | 59 | 315 | 1.0 | 4.0 | 0.01 | 0.90 | 0.42 | 70 | 1011.1 |
| 20260506124017 | 58 | 315 | 2.0 | 6.0 | 0.01 | 0.90 | 0.42 | 71 | 1011.0 |
| 20260506123017 | 57 | 158 | 2.0 | 6.0 | 0.02 | 0.91 | 0.42 | 73 | 1011.0 |
| 20260506122017 | 57 | 315 | 2.0 | 5.0 | 0.01 | 0.90 | 0.41 | 70 | 1011.1 |
| 20260506121018 | 57 | 23 | 2.0 | 7.0 | 0.01 | 0.90 | 0.41 | 74 | 1011.0 |
| 20260506120017 | 56 | 338 | 1.0 | 4.0 | 0.01 | 0.91 | 0.41 | 74 | 1011.1 |